This demonstration page uses our WeatherBlox Daily Observations layout. Learn more.

36.17497, -115.13722

Hourly Observations for March 15, 2018

Temp ( °F °C ) Dew Point ( °F °C ) Humidity (%) Winds ( mph kmh ) Pressure ( in mb ) Visibility ( mi km ) Precip ( " mm )
12:53 am 00:53 Clear 57 13.9 27 -2.8 32 32 W 28 44 29.74 1007 10 16.0934 0 0
1:53 am 01:53 Clear 56 13.3 27 -2.8 33 33 WSW 9 15 29.77 1008 10 16.0934 0 0
2:53 am 02:53 Clear 56 13.3 29 -1.7 36 36 SW 13 20 29.78 1008 10 16.0934 0 0
3:53 am 03:53 Clear 56 13.3 28 -2.2 34 34 W 13 20 29.78 1008 10 16.0934 0 0
4:53 am 04:53 Clear 55 12.8 30 -1.1 38 38 WSW 9 15 29.77 1008 10 16.0934 0 0
5:53 am 05:53 Mostly Clear 54 12.2 30 -1.1 40 40 NW 8 13 29.78 1008 10 16.0934 0 0
6:53 am 06:53 Cloudy 54 12.2 32 0 43 43 SW 5 7 29.8 1009 10 16.0934 0 0
7:53 am 07:53 Cloudy 53 11.7 34 1.1 48 48 SSW 13 20 29.81 1010 10 16.0934 0 0
8:53 am 08:53 Mostly Sunny 51 10.6 37 2.8 59 59 SSW 10 17 29.83 1010 10 16.0934 0 0
9:53 am 09:53 Partly Cloudy 55 12.8 35 1.7 47 47 SSW 10 17 29.84 1011 10 16.0934 0 0
10:53 am 10:53 Mostly Cloudy 56 13.3 35 1.7 46 46 S 7 11 29.84 1011 10 16.0934 0 0
11:34 am 11:34 Mostly Cloudy 59 15 31 -0.6 35 35 W 18 30 29.77 1008 10 16.0934 0 0
11:53 am 11:53 Partly Cloudy 58 14.4 31 -0.6 36 36 WSW 22 35 29.83 1010 10 16.0934 0 0
12:24 pm 12:24 Mostly Cloudy 53 11.7 37 2.8 55 55 NNW 31 50 29.83 1010 10 16.0934 0 0
12:53 pm 12:53 Cloudy with Light Rain 49 9.4 41 5 74 74 NNW 24 39 29.89 1012 10 16.0934 0 0.0254
1:53 pm 13:53 Mostly Cloudy 53 11.7 39 3.9 59 59 NW 21 33 29.87 1012 10 16.0934 0.01 0.254
2:53 pm 14:53 Sunny 57 13.9 35 1.7 44 44 N 16 26 29.86 1011 10 16.0934 0 0
3:21 pm 15:21 Sunny with Nearby Thunderstorms 58 14.4 35 1.7 42 42 N 10 17 29.8 1009 10 16.0934 0 0
3:53 pm 15:53 Sunny with Nearby Thunderstorms 58 14.4 34 1.1 41 41 NW 7 11 29.85 1011 10 16.0934 0 0
4:05 pm 16:05 Sunny 59 15 33 0.6 38 38 NW 8 13 29.8 1009 10 16.0934 0 0
4:53 pm 16:53 Sunny 60 15.6 30 -1.1 32 32 VRB 6 9 29.85 1011 10 16.0934 0 0
5:53 pm 17:53 Sunny 60 15.6 31 -0.6 33 33 N 6 9 29.86 1011 10 16.0934 0 0
6:53 pm 18:53 Clear 58 14.4 31 -0.6 36 36 N 8 13 29.87 1011 10 16.0934 0 0
7:53 pm 19:53 Clear 56 13.3 31 -0.6 39 39 NE 3 6 29.88 1012 10 16.0934 0 0
8:53 pm 20:53 Clear 54 12.2 33 0.6 45 45 SW 5 7 29.9 1012 10 16.0934 0 0
9:53 pm 21:53 Clear 53 11.7 31 -0.6 43 43 S 6 9 29.91 1013 10 16.0934 0 0
10:53 pm 22:53 Clear 53 11.7 24 -4.4 32 32 SSW 8 13 29.92 1013 10 16.0934 0 0
11:53 pm 23:53 Clear 52 11.1 24 -4.4 34 34 SSW 9 15 29.92 1013 10 16.0934 0 0

Powered by AerisWeather